Preview of NWS' New Version of Forecast
This preview is not operational and should not be used for support decisions.

Regional Weather Roundup (RWR)

Issued by National Weather Service (NWS)

                            
000
ASUS43 KDMX 180801
RWRIA 

WEATHER ROUNDUP FOR IOWA
NATIONAL WEATHER SERVICE DES MOINES IA
300 AM CDT TUE JUN 18 2019

NOTE: "FAIR" INDICATES FEW OR NO CLOUDS BELOW 12,000 FEET WITH NO
SIGNIFICANT WEATHER AND/OR OBSTRUCTIONS TO VISIBILITY.

* - THESE STATIONS ARE NOT NWS STATIONS...THUS NOT UNDER NWS
QUALITY CONTROL.  THEY ALSO DO NOT REPORT WEATHER SUCH 
AS PRECIPITATION OR FOG.  

IAZ001>003-012>014-020>022-031>034-043>046-180900-
   NORTHWEST IOWA
  
CITY           SKY/WX    TMP DP  RH WIND       PRES   REMARKS
CARROLL *      CLOUDY    66  64  94 N6        29.98F                  
CHEROKEE *     LGT RAIN  64  64 100 CALM      30.00S                  
DENISON *      CLOUDY    64  64 100 E5        29.99F                  
LE MARS *      CLOUDY    66  66 100 NE6       29.99S                  
SHELDON *        N/A     61  61 100 NE3       29.99S                  
SIOUX CITY     CLOUDY    66  65  96 CALM      29.97F                  
SPENCER        CLOUDY    64  58  80 N5        29.99F                  
STORM LAKE *   LGT RAIN  63  63 100 NE6       29.97F                  
$$
 
IAZ055>058-069>071-079>083-090>094-180900-
   SOUTHWEST IOWA
  
CITY           SKY/WX    TMP DP  RH WIND       PRES   REMARKS
ATLANTIC *     MOCLDY    64  64 100 N3        29.96F                  
AUDUBON *      MOCLDY    64  63  94 CALM      29.99S                  
CLARINDA *     MOCLDY    64  63  94 CALM      29.98S                  
COUNCIL BLFS * CLOUDY    66  66 100 CALM      29.94F                  
CRESTON *      CLOUDY    64  63  94 SE3       29.98S                  
HARLAN  *      CLOUDY    64  64 100 N5        29.96F                  
LAMONI         CLEAR     64  61  90 SE5       29.97F                  
RED OAK *      CLOUDY    68  63  83 CALM      29.96S                  
SHENANDOAH *   CLOUDY    68  63  83 CALM      29.94S                  
$$
 
IAZ047>049-059>061-072>074-084-180900-
   CENTRAL IOWA
  
CITY           SKY/WX    TMP DP  RH WIND       PRES   REMARKS
AMES           CLOUDY    67  65  93 CALM      29.96F                  
ANKENY *       CLOUDY    68  66  94 CALM      29.97F                  
BOONE *        CLOUDY    66  66 100 NE5       29.97S FOG              
CHARITON *     CLOUDY    64  64 100 S7        29.96F                  
DES MOINES     CLOUDY    67  63  87 S5        29.95F                  
GRINNELL*      MOCLDY    63  60  91 CALM      30.00R                  
KNOXVILLE *      N/A     63  61  94 S6        29.97S                  
MARSHALLTOWN   CLOUDY    66  63  90 S5        29.97F                  
NEWTON *       PTCLDY    64  64 100 CALM      29.97F                  
PELLA *        CLEAR     62  60  93 SE3       29.98F FOG              
PERRY *        CLOUDY    66  66 100 CALM      29.97F                  
$$
 
IAZ004>006-015-016-023>025-035-036-180900-
   NORTH CENTRAL IOWA
  
CITY           SKY/WX    TMP DP  RH WIND       PRES   REMARKS
ALGONA *       CLOUDY    61  61 100 CALM      29.99S                  
CLARION *      CLOUDY    66  64  94 E3        29.98F                  
ESTHERVILLE    CLOUDY    60  57  89 N5        29.99S                  
FORT DODGE *   CLOUDY    64  63  96 CALM      29.99F                  
MASON CITY     CLOUDY    63  63 100 W3        30.00F FOG              
FOREST CITY *  FOG       61  61 100 CALM      29.99S VSB 1/4          
IOWA FALLS *   CLOUDY    66  65  97 CALM      29.99S FOG              
$$

IAZ007>011-017>019-026>030-037>042-050>054-066-180900-
   NORTHEAST IOWA
  
CITY           SKY/WX    TMP DP  RH WIND       PRES   REMARKS
CEDAR RAPIDS   FAIR      58  58 100 SE3       29.97S FOG              
CHARLES CITY * CLOUDY    64  64 100 CALM      29.98F                  
CLINTON *      FAIR      56  55  97 NE5       29.99F                  
DECORAH *      CLOUDY    64  63  94 S3        29.96F                  
DUBUQUE        CLOUDY    57  56  96 CALM      29.99S FOG              
MONTICELLO *   FAIR      59  59 100 E3        29.98S FOG              
OELWEIN *      CLOUDY    63  63 100 S5        29.99S                  
WATERLOO       CLOUDY    67  62  84 S5        29.96F                  
$$
 
IAZ064-065-067-068-078-180900-
   EAST CENTRAL IOWA
  
CITY           SKY/WX    TMP DP  RH WIND       PRES   REMARKS
DAVENPORT      FAIR      57  55  93 CALM      30.00F FOG              
IOWA CITY      FAIR      61  58  90 CALM      29.99F                  
MT. PLEASANT * CLEAR     61  61 100 CALM      29.98F                  
MUSCATINE *    FAIR      57  57 100 CALM      29.98S FOG              
QUAD CITIES    FAIR      59  56  89 CALM      29.98S                  
$$
 
IAZ062-063-075>077-085>089-095>099-180900-
   SOUTHEAST IOWA
  
CITY           SKY/WX    TMP DP  RH WIND       PRES   REMARKS
BURLINGTON     CLEAR     59  56  89 CALM      29.97F                  
FAIRFIELD *    CLEAR     61  61 100 CALM      29.98R FOG              
FORT MADISON * PTCLDY    61  61 100 CALM      29.98F FOG              
KEOKUK *         N/A     61  59  94 CALM      29.97S                  
OSKALOOSA *    FAIR      61  59  93 SE5       29.99S FOG              
CENTERVILLE *  FOG       57  57 100 CALM      29.99F VSB<1/4          
OTTUMWA        CLEAR     60  58  92 SE3       29.97F FOG              
WASHINGTON *   CLEAR     59  59 100 CALM      29.99S FOG              
$$

ABBREVIATIONS USED IN REMARKS
   TC - TEMPERATURES IN CELSIUS
  WCI - WIND CHILL INDEX
   HX - HEAT INDEX
  VSB - VISIBILITY  
$$